Location: Unspecified
(0.0000°N, 0.0000°E)
Time: 18:01:02
(UTC+02:00)

USA 116 - Visible Passes

Search period start: 29 June 2017 00:00
Search period end: 09 July 2017 00:00
Orbit: 405 x 834 km, 97.9° (Epoch: 18 November)

Date Brightness Start Highest point End Pass type
(mag) Time Alt. Az. Time Alt. Az. Time Alt. Az.
30 Jun 6.3 06:33:59 10° ESE 06:36:06 17° ENE 06:38:15 10° NE visible
01 Jul 5.3 06:46:48 10° SE 06:49:33 29° ENE 06:52:25 10° NNE visible
02 Jul 3.9 06:59:59 10° SSE 07:03:02 54° ENE 07:06:15 10° N visible
03 Jul 3.1 07:13:24 10° S 07:16:31 77° WSW 07:19:49 10° NNW visible
04 Jul 3.6 07:27:02 10° S 07:30:02 40° W 07:33:11 10° NNW visible
06 Jul 7.0 06:20:54 10° E 06:21:26 10° ENE 06:21:59 10° ENE visible
07 Jul 6.4 06:32:36 10° ESE 06:34:53 18° ENE 06:37:16 10° NNE visible
08 Jul 5.4 06:45:25 10° SE 06:48:19 29° ENE 06:51:28 10° NNE visible
